Flag for Peru Weather past 2 weeks in Chiclayo, Lambayeque, Peru

Now
59 °F

Overcast.


Feels Like: 59 °F
Forecast: 61 / 75 °F
Wind: No wind

Location: Chiclayo Airport

Current Time: Aug 21, 2014 at 7:48:08 AM

Latest Report: Aug 21, 2014 at 7:00 AM


Visibility: 4 mi

Pressure: 29.98 "Hg

Humidity: 94%

Dew point: 57 °F

Location of ChiclayoLocation

Historic Weather in Chiclayo — Graph

°F

Chiclayo temperature yesterday

Maximum temperature yesterday: 73 °F (at 3:00 PM)
Minimum temperature yesterday: 61 °F (at 3:00 AM)
Average temperature yesterday: 66 °F

Past Weeks' High & Low Weather Summary

 TemperatureHumidityPressure
High77 °F (Aug 9, 1:00 PM)94% (Aug 6, 6:00 AM)30.04 "Hg (Aug 6, 6:00 AM)
Low59 °F (Aug 9, 6:00 AM)57% (Aug 10, 1:00 PM)29.83 "Hg (Aug 14, 3:00 PM)
Average66 °F80%29.94 "Hg
* Reported Aug 6 6:00 AM — Aug 21 6:00 AM, Chiclayo, Weather by CustomWeather, © 2014

Note: Actual official high and low records may vary slightly from our data, if they occured in-between our weather recording intervals... More about our weather records

Advertising

Chiclayo weather history for previous 24 hours

 ConditionsComfort  
Time TempWeatherWind HumidityBarometerVisibility
6:00 AM
Aug 21
61 °FClear.No wind94%29.95 "Hg4 mi
5:00 AM61 °FClear.No wind94%29.92 "Hg5 mi
4:00 AM61 °FPassing clouds.No wind94%29.92 "HgN/A
3:00 AM61 °FPassing clouds.No wind94%29.92 "HgN/A
2:00 AM63 °FOvercast.8 mph88%29.92 "HgN/A
1:00 AM63 °FOvercast.12 mph88%29.95 "HgN/A
12:00 AM63 °FPassing clouds.9 mph94%29.98 "HgN/A
11:00 PM
Aug 20
63 °FClear.12 mph94%29.98 "Hg10 mi
10:00 PM63 °FClear.9 mph88%29.98 "Hg10 mi
9:00 PM64 °FClear.12 mph88%29.95 "Hg10 mi
8:00 PM64 °FClear.12 mph88%29.95 "Hg10 mi
7:00 PM64 °FClear.10 mph88%29.95 "Hg10 mi
6:00 PM68 °FSunny.15 mph78%29.92 "Hg10 mi
5:00 PM72 °FPassing clouds.16 mph69%29.92 "HgN/A
4:00 PM73 °FPartly sunny.12 mph65%29.92 "HgN/A
3:00 PM73 °FOvercast.9 mph65%29.92 "HgN/A
2:00 PM72 °FOvercast.8 mph69%29.92 "HgN/A
1:00 PM70 °FOvercast.7 mph73%29.95 "HgN/A
12:00 PM68 °FOvercast.7 mph83%29.98 "HgN/A
11:00 AM68 °FOvercast.5 mph78%30.01 "HgN/A
10:00 AM66 °FOvercast.3 mph83%30.01 "HgN/A
9:00 AM66 °FOvercast.No wind78%30.01 "Hg6 mi
8:00 AM64 °FLow clouds.6 mph83%29.98 "Hg5 mi
7:00 AM63 °FOvercast.5 mph88%29.95 "Hg5 mi
Weather by CustomWeather, © 2014

See weather overviewHow to use our weather pages